Погода в Большом Берчикуле

Россия / Кемеровская область (Кузбасс)     55°38′17″N   88°18′15″E
темп.,
°C
ветер,
м/с
пор.,
м/с
влажн.,
%
обл.,
%
осадки,
мм/ч
давл.,
гПа
погр.,
м
30 ноября, вт
вт3001:00−5юз5157273 0.0 1030452
04:00−5юз6166885 0.0 1028438
07:00−5юз6156578 0.0 1027423
10:00−4юз71862100 0.0 1026490
13:00−3юз81962100 0.0 1025615
16:00−3юз71962100 0.0 1025574
19:00−4юз7196394 0.0 1024534
22:00−4зюз719655 0.0 1025549
1 декабря, ср
ср101:00−5юз7186825 0.0 1025499
04:00−6зюз6167160 0.0 1026471
07:00−6зюз6167362 0.0 1027435
10:00−7зюз4117539 0.0 1028265
13:00−4зюз41174100 0.0 1028404
16:00−5юз31075100 0.0 1028238
19:00−7юз31074100 0.0 1027229
22:00−6юз41173100 0.0 1027264
2 декабря, чт
чт201:00−3юз61765100 0.0 1025470
04:00−3зюз51467100 0.0 1025367
07:00−3юз51365100 0.0 1024330
10:00−3юз61662100 0.0 1024436
13:000зюз51362100 0.0 1023422
16:00−2юз3868100 0.0 1022149
19:00−6ююз2573100 0.0 102183
22:00−6ююз257079 0.0 102081
3 декабря, пт
пт301:00−7ююз25713 0.0 101989
04:00−5ююз37651 0.0 1017108
07:00−2ююз37590 0.0 1014110
10:000ююз410530 0.0 1011167
13:00+2ю41364100 0.0 1007246
16:00+4юз92149100 0.0 1004878
19:00+1юз92082100 0.5 10041156
22:00+1зюз11208750 0.4 10071141
4 декабря, сб
сб401:00−2зюз1119765 0.5 10121166
04:00−5зюз101880100 0.0 1016972
07:00−5зюз9188091 0.0 1018982
10:00−6юз91880100 0.0 1019961
13:00−4юз91683100 0.1 10191093
16:00−4юз81582100 0.1 1018996
19:00−6зюз81585100 0.1 1024972
22:00−6зюз8158485 0.1 1026927